User: anonymous
Location: Vancouver
(49.2500°N, 123.1330°W)
Time: 16:37:28
(UTC-07:00)
Language:

Cosmos 1340 Rocket - Orbit

View from above orbital plane
View from above orbital plane
View from above satellite
View from above satellite

Ground track
Ground track

The orbit data is extracted from the following two-line orbital elements,

1 13068U 82013B   14107.94163737  .00002510  00000-0  17932-3 0  3824
2 13068 081.2030 100.2804 0023860 164.9645 195.2292 15.03934389749480
Epoch (UTC): 17 April 2014 22:35:57
Eccentricity: 0.0023860
inclination: 81.2030°
perigee height: 538 km
apogee height: 571 km
right ascension of ascending node: 100.2804°
argument of perigee: 164.9645°
revolutions per day: 15.03934389
mean anomaly at epoch: 195.2292°
orbit number at epoch: 74948

The dashed part of the orbit path shows where the satellite is in the earth's shadow,  

DLR